DMSP 5D-2 F13 DEB, 42300

Orbit data source: Space-Track

DMSP 5D-2 F13 DEB, 42300 is space debris in SSO originally from a launch on Fri, 24 Mar 1995 UTC launched from the Air Force Western Test Range (AFWTR). Debris objects in space refer to the collection of defunct objects orbiting the Earth. Examples of debris include non-operational satellites, rocket bodies, and fragments generated from explosions, collisions, or faulty payload assembly.

Loading next visibility...
Identifier
42300, 1995-015HS
Orbit
SSO
Last TLE update
5 days ago
Origin
Manufacturer
Unknown
Mission
Spacecraft
Bus & Motor
Unknown
Mass
Unknown
Launch date (UTC)
1995-03-24 (30 years ago)
Launch vehicle
Unknown
Launch site
Air Force Western Test Range (AFWTR)
Object type
Payload
Rocket body
Debris
Shape & HBR
Unknown
Radar Cross Section
Small (<0.1 m²)

Expand to show TLE details & history

TLE from 5 days ago
0 DMSP 5D-2 F13 DEB
1 42300U 95015HS  25116.31166653  .00009788  00000-0  30525-2 0  9994
2 42300  98.6152 152.0904 0028828 100.3696 260.0744 14.40801558440991
Epoch: 2025-04-26T07:28Z
Definitive object data (Epoch: 2025-04-26T07:28:47.988Z)
Latitude
0.00001°
Longitude
-174.66576°
Altitude
762.4 km
Speed
7.471 km/s
True Right ascension
10h 08m 21s
True Declination
0° 00' 00"
Sunlit
Object was in full shadow at TLE epoch
Visualization TLE readout
Latitude
-46.18912°
Longitude
0.95584°
Altitude
789.119 km
Speed
7.45 km/s
Apparent Right ascension
20h 00m 02s
Apparent Declination
-46° 35' 54"
Sunlit
Object is in daylight
Visualization observer readout
Local Sidereal Time
06:07:28
Azimuth
242.53° WSW
Elevation
-68.579°
Doppler factor
1
Orbital elements
Apogee altitude
773.535 km
Perigee altitude
732.42 km
Semi-major axis
7,131.115 km
Eccentricity
0.0028828
Inclination
98.6152°
RAAN
152.0904°
Arg. of periapsis
100.3696°
True anomaly
259.7492°
Mean anomaly
260.0744°
Eccentric anomaly
259.91178°
Mean motion
3.60418 °/min
BSTAR
0.0030525
Orbital period
99.88 mins
Loading maneuver chart data...
Loading SW <> Apogee altitude chart data...

DMSP 5D-2 F13 DEB Visibility forecast

Observer location: undefined°, undefined°

Span
Click to sort rows by Start time (UTC) header in descending order
Start Az.
Max El. time (UTC)
Max El. Az.
Max El.
End time (UTC)
End Az.
4 mins2025-05-01 00:59:29.229Z88.376° E2025-05-01 01:01:29.229Z61.387° ENE15.178°2025-05-01 01:03:29.229Z34.78° NE
8 mins2025-05-01 02:36:29.229Z183.94° SSW2025-05-01 02:39:29.229Z246.488° WSW40.817°2025-05-01 02:44:29.229Z338.946° N
7 mins2025-05-01 14:44:29.229Z36.927° NE2025-05-01 14:47:29.229Z95.731° ESE34.044°2025-05-01 14:51:29.229Z166.617° S
6 mins2025-05-01 16:23:29.229Z333.164° NNW2025-05-01 16:26:29.229Z287.607° WNW19.843°2025-05-01 16:29:29.229Z248.681° W
|